CW7769 Weather Reports


time (UTC)temp
C
wind
direction
speed
KPH
gust
KPH
rain 1hr
cm
rain 24hr
cm
rain mn
cm
humidity
%
barometer
mb
20260504005800 13 141 0.0 0.0 0.00 0.00 0.00 53 1014.2
20260504004751 13 141 0.0 0.0 0.00 0.00 0.00 52 1014.3
20260504003732 13 141 0.0 0.0 0.00 0.00 0.00 51 1014.3
20260504002733 14 141 0.0 0.0 0.00 0.00 0.00 51 1014.3
20260504001706 14 141 0.0 0.0 0.00 0.00 0.00 50 1014.4
20260504000649 15 141 0.0 0.0 0.00 0.00 0.00 50 1014.4
20260503235631 15 141 0.0 0.0 0.00 0.00 0.00 50 1014.3
20260503234638 15 141 0.0 0.0 0.00 0.00 0.00 47 1014.4
20260503233610 15 141 0.0 0.0 0.00 0.00 0.00 47 1014.4
20260503232629 15 141 0.0 0.0 0.00 0.00 0.00 46 1014.4
20260503231630 16 141 0.0 0.0 0.00 0.00 0.00 46 1014.4
20260503230618 16 141 0.0 0.0 0.00 0.00 0.00 45 1014.4
20260503225614 16 141 0.0 0.0 0.00 0.00 0.00 46 1014.4
20260503224633 16 141 0.0 0.0 0.00 0.00 0.00 45 1014.4
20260503223617 16 141 0.0 0.0 0.00 0.00 0.00 45 1014.4
20260503222558 16 141 0.0 0.0 0.00 0.00 0.00 45 1014.4
20260503221619 16 142 0.0 0.0 0.00 0.00 0.00 45 1014.5
20260503220633 16 141 0.0 0.0 0.00 0.00 0.00 44 1014.4
20260503214458 16 146 0.0 1.6 0.00 0.00 0.00 43 1014.5
20260503213438 16 181 0.0 0.0 0.00 0.00 0.00 42 1014.4
20260503212453 17 182 0.0 1.6 0.00 0.00 0.00 41 1014.2
20260503211441 17 184 0.0 3.2 0.00 0.00 0.00 42 1014.1
20260503210505 17 215 0.0 3.2 0.00 0.00 0.00 41 1013.9
20260503204409 17 180 0.0 8.0 0.00 0.00 0.00 41 1013.9
20260503203342 17 200 0.0 4.8 0.00 0.00 0.00 41 1014.0
20260503202346 17 219 0.0 4.8 0.00 0.00 0.00 39 1014.0
20260503201411 17 209 0.0 6.4 0.00 0.00 0.00 39 1013.9
20260503200338 17 161 0.0 6.4 0.00 0.00 0.00 38 1014.0
20260503195348 17 178 0.0 0.0 0.00 0.00 0.00 37 1014.0
20260503194337 18 174 0.0 1.6 0.00 0.00 0.00 36 1013.9
20260503193350 18 174 0.0 1.6 0.00 0.00 0.00 34 1013.9
20260503192400 18 227 0.0 0.0 0.00 0.00 0.00 33 1014.1
20260503191346 18 221 0.0 4.8 0.00 0.00 0.00 32 1014.0
20260503190401 18 296 0.0 4.8 0.00 0.00 0.00 30 1014.0
20260503185400 18 262 1.6 8.0 0.00 0.00 0.00 30 1014.0
20260503184327 19 215 1.6 14.5 0.00 0.00 0.00 29 1014.1
20260503183306 19 238 6.4 14.5 0.00 0.00 0.00 28 1014.0
20260503182313 19 265 4.8 24.1 0.00 0.00 0.00 27 1014.0
20260503181307 19 229 4.8 24.1 0.00 0.00 0.00 26 1013.9
20260503180243 20 209 1.6 14.5 0.00 0.00 0.00 27 1013.8
20260503174123 20 265 9.7 32.2 0.00 0.00 0.00 25 1013.7
20260503173114 20 275 8.0 29.0 0.00 0.00 0.00 27 1013.6
20260503172126 21 255 12.9 29.0 0.00 0.00 0.00 26 1013.5
20260503130511 24 224 4.8 11.3 0.00 0.00 0.00 28 1013.6
20260503120201 22 275 1.6 14.5 0.00 0.00 0.00 41 1014.0
20260503080642 16 144 0.0 0.0 0.00 0.00 0.00 58 1015.1
20260503072518 15 173 0.0 6.4 0.00 0.00 0.00 59 1015.0
20260503054854 13 304 0.0 3.2 0.00 0.00 0.00 63 1015.1
20260503053834 13 226 1.6 8.0 0.00 0.00 0.00 64 1015.3
20260503052838 13 163 1.6 8.0 0.00 0.00 0.00 64 1015.6
20260503050732 13 120 0.0 1.6 0.00 0.00 0.00 64 1015.3
20260503045749 12 167 0.0 0.0 0.00 0.00 0.00 63 1014.9
20260503044718 12 167 0.0 0.0 0.00 0.00 0.00 62 1015.0
20260503043653 12 167 0.0 0.0 0.00 0.00 0.00 62 1015.0
20260503042633 12 167 0.0 0.0 0.00 0.00 0.00 61 1015.0
20260503041654 12 167 0.0 0.0 0.00 0.00 0.00 61 1014.9
20260503040639 12 167 0.0 0.0 0.00 0.00 0.00 61 1014.9
20260503034514 13 167 0.0 0.0 0.00 0.00 0.00 61 1014.9
20260503033453 13 167 0.0 0.0 0.00 0.00 0.00 60 1014.9
20260503031341 13 167 0.0 0.0 0.00 0.00 0.00 61 1014.8
20260503030354 12 167 0.0 0.0 0.00 0.00 0.00 61 1014.9
20260503024212 12 265 0.0 0.0 0.00 0.00 0.00 62 1015.1
20260503023211 12 265 0.0 0.0 0.00 0.00 0.00 62 1015.1
20260503022210 12 265 0.0 0.0 0.00 0.00 0.00 62 1015.1
20260503021158 12 265 0.0 0.0 0.00 0.00 0.00 61 1015.2
20260503020218 12 265 0.0 0.0 0.00 0.00 0.00 60 1015.1
20260503015157 12 265 0.0 0.0 0.00 0.00 0.00 60 1015.0
20260503014201 12 265 0.0 0.0 0.00 0.00 0.00 60 1015.1
20260503013211 12 265 0.0 0.0 0.00 0.00 0.00 60 1015.1
20260503012209 12 265 0.0 0.0 0.00 0.00 0.00 60 1015.2
20260503011211 12 265 0.0 0.0 0.00 0.00 0.00 60 1015.3